www.pogodaiklimat.ru

Погода и климат >> Архив погоды >> Украина >> Кривой Рог


АРХИВ ПОГОДЫ в Кривом Роге

Время (UTC), дата Ветер
(напр.,м/с)
 
Видим.   Явления Облачность Т
(С)
Тd
(С)
f
(%)
Тe
(С)
Тes
(С)
Комфортность P
(гПа)
Po
(гПа)
Тmin
(С)
Tmax
(С)
R
(мм)
R24
(мм)
S
(см)
18 17.09 С 2 10 км 4/0
[Ci fib]
+14.6 +3.0 46 +14 +14 по сезону 1024.3 1009.5 +21.4
21 17.09 СЗ 1 10 км ясно +10.6 +2.7 58 +11 +11 по сезону 1024.5 1009.5
00 18.09 штиль 0 10 км ясно +9.5 +2.9 63 +9 +9 по сезону 1024.5 1009.4
03 18.09 штиль 0 10 км ясно +7.1 +3.8 80 +6 +6 холодно 1024.9 1009.7
06 18.09 З 1 10 км 3/0
[Ci fib]
+13.5 +5.4 58 +14 +17 по сезону 1025.4 1010.5 +6.7
09 18.09 С 2 10 км 3/0
[Ci fib]
+21.3 +4.1 32 +22 +31 комфорт 1024.4 1009.9
12 18.09 З 3 10 км 5/0
[Ci fib]
+24.0 +4.8 29 +24 +29 комфорт 1023.0 1008.7
15 18.09 СЗ 4 10 км 8/0
[Ci fib]
+23.1 +4.8 30 +23 +23 комфорт 1021.9 1007.6
18 18.09 штиль 0 10 км 8/0
[Ci fib]
+17.5 +5.2 44 +18 +18 тепло 1022.5 1007.9 +24.0
21 18.09 штиль 0 10 км 8/0
[Ci fib]
+15.3 +5.4 52 +15 +15 тепло 1022.9 1008.2
00 19.09 штиль 0 10 км ясно +12.8 +5.5 61 +13 +13 тепло 1023.3 1008.4
03 19.09 СЗ 1 10 км ясно +11.0 +6.1 72 +11 +11 по сезону 1023.7 1008.7
06 19.09 штиль 0 10 км ясно +18.1 +9.3 56 +18 +22 тепло 1024.0 1009.4 +10.0
09 19.09 С 1 10 км ясно +24.8 +8.1 34 +25 +36 комфорт 1023.5 1009.2
12 19.09 С 2 10 км ясно +27.8 +5.7 25 +27 +34 жарко 1022.2 1008.1
15 19.09 С 2 10 км ясно +27.2 +5.2 25 +26 +27 жарко 1021.5 1007.4
18 19.09 штиль 0 10 км ясно +19.6 +5.3 39 +20 +20 тепло 1022.2 1007.7 +27.9
21 19.09 С 1 10 км ясно +16.3 +4.3 45 +17 +17 тепло 1022.5 1007.8
00 20.09 штиль 0 10 км ясно +13.9 +4.6 53 +14 +14 тепло 1022.4 1007.6
03 20.09 СЗ 1 10 км ясно +13.6 +6.8 63 +14 +14 тепло 1022.7 1007.9
06 20.09 СЗ 1 10 км ясно +20.0 +8.3 47 +22 +25 комфорт 1022.4 1007.9 +12.0
09 20.09 З 3 10 км ясно +27.4 +7.7 29 +27 +35 жарко 1021.4 1007.3
12 20.09 З 4 10 км ясно +29.4 +5.9 23 +28 +33 жарко 1020.0 1006.0
15 20.09 СЗ 2 10 км ясно +28.5 +6.1 24 +27 +28 жарко 1019.0 1005.0
18 20.09 С 3 10 км ясно +21.9 +6.1 36 +23 +23 комфорт 1019.8 1005.4 +29.6
21 20.09 СЗ 1 10 км ясно +16.9 +6.8 51 +18 +18 тепло 1020.1 1005.5
00 21.09 С 2 10 км ясно +15.2 +7.5 60 +15 +15 тепло 1020.2 1005.5
03 21.09 С 2 10 км ясно +14.7 +8.1 65 +14 +14 тепло 1020.4 1005.7
06 21.09 СВ 1 10 км ясно +21.2 +10.4 50 +23 +26 комфорт 1020.6 1006.2 +14.2
09 21.09 С 2 10 км ясно +27.5 +9.5 32 +28 +37 жарко 1020.1 1006.0
12 21.09 ЮВ 3 10 км ясно +29.2 +7.9 26 +28 +34 жарко 1018.9 1004.9
15 21.09 В 3 10 км 3/0
[Ac trans]
+27.9 +9.1 31 +28 +28 жарко 1018.3 1004.3
18 21.09 В 3 10 км ясно +21.1 +8.3 44 +22 +22 комфорт 1018.9 1004.5 +29.6
21 21.09 штиль 0 10 км ясно +19.2 +8.9 51 +20 +20 тепло 1018.8 1004.3
00 22.09 В 3 10 км ясно +16.0 +8.8 62 +16 +16 тепло 1018.5 1003.9
03 22.09 штиль 0 10 км ясно +13.2 +8.8 75 +13 +13 по сезону 1018.6 1003.8
06 22.09 В 2 10 км ясно +20.5 +11.7 57 +23 +26 комфорт 1018.0 1003.6 +12.3
09 22.09 Ю 2 10 км ясно +28.2 +10.3 33 +29 +38 жарко 1017.0 1003.0
12 22.09 Ю 4 10 км 3/3 1000 м
[Cu hum]
+30.0 +7.4 24 +29 +32 жарко 1015.3 1001.4
15 22.09 Ю 4 10 км ясно +28.0 +6.2 25 +27 +27 жарко 1014.1 1000.1
18 22.09 Ю 3 10 км ясно +21.6 +3.2 30 +22 +22 комфорт 1014.6 1000.3 +30.1
21 22.09 ЮЗ 3 10 км 3/0
[Ci fib]
+19.2 +8.2 49 +20 +20 тепло 1014.1 999.7
00 23.09 ЮЗ 3 10 км 3/0
[Ci fib]
+15.8 +7.1 56 +15 +15 тепло 1014.0 999.4
03 23.09 С 5 10 км 10/4 1000 м
[Cb calv Ac und]
+14.5 +8.6 68 +13 +13 по сезону 1014.8 1000.2
06 23.09 СЗ 5 10 км слабый ливневой дождь 10/6 900 м
[Cb calv Ac und]
+11.9 +9.9 88 +9 +10 прохладно 1017.2 1002.4 +11.9 2
09 23.09 С 5 10 км {ливн. осадки} 10/3 600 м
[Cb calv Ac und]
+12.7 +8.9 78 +11 +12 холодно 1018.2 1003.4
12 23.09 С 4 10 км {ливн. осадки} 8/5 900 м
[Sc Ci fib]
+16.3 +6.5 52 +16 +18 прохладно 1018.1 1003.5
15 23.09 СЗ 3 10 км 3/3 1000 м
[Sc]
+16.3 +6.0 50 +16 +16 по сезону 1017.8 1003.2
18 23.09 З 1 10 км ясно +12.0 +5.3 64 +12 +12 прохладно 1018.7 1003.9 +16.7 1
21 23.09 Ю 2 10 км 3/0
[Ac trans]
+9.2 +5.2 76 +8 +8 прохладно 1018.8 1003.8
00 24.09 Ю 2 10 км 3/0
[Ci fib]
+7.6 +4.6 81 +6 +6 прохладно 1017.5 1002.5
03 24.09 Ю 3 10 км 10/0
[Ci fib]
+9.0 +6.6 85 +7 +7 прохладно 1015.7 1000.8
06 24.09 Ю 6 10 км 5/0
[Ac trans]
+12.8 +7.5 70 +10 +11 прохладно 1014.2 999.5 +7.3
09 24.09 Ю 10 10 км 4/0
[Ac trans]
+18.9 +7.6 48 +18 +19 тепло 1010.7 996.3
12 24.09 Ю 9 10 км 10/10 1200 м
[Sc]
+21.1 +8.9 46 +22 +22 комфорт 1008.4 994.2

 

Местоположение метеостанции Кривой Рог (Днепропетровская область, Украина): широта 48.03 долгота 33.22 высота над уровнем моря 124 м.

В архиве по умолчанию представлена погода в Кривом Роге за последнюю неделю. Архивные данные за месяц целиком и за предыдущие месяцы, начиная с января 2011 года, Вы можете получить, выбрав интересующий диапазон дат из раскрывающегося списка и нажав кнопку "Ввод!".


*Определитесь, кто Вы:
робот инопланетянин человек

Внимание! Время в таблицах - всемирное. Для получения местного времени необходимо прибавить поправку, которая в Кривом Роге равна 2 ч.

Смотрите также архив погоды в соседних городах и на ближайших метеорологических станциях:

Погода в Долинской (Кировоградская область, Украина) (35 км)
Погода в Комиссаровке (Днепропетровская область, Украина) (67 км)
Погода в Лошкарёвке (Днепропетровская область, Украина) (73 км)
Погода в Великой Александровке (Херсонская область, Украина) (79 км)
Погода в Бобринце (Кировоградская область, Украина) (80 км)
Погода в Знаменке (Кировоградская область, Украина) (87 км)
Погода в Баштанке (Николаевская область, Украина) (88 км)
Погода в Кропивницком (Кировоградская область, Украина) (93 км)
Погода в Никополе (Днепропетровская область, Украина) (105 км)
Погода в Светловодске (Кировоградская область, Украина) (113 км)

Пояснения к столбцам:

Ветер - указаны скорость ветра в м/с - средняя за 10 мин, порывы в срок и между сроками (в фигурных скобках) и направление, откуда дует ветер: С - северный, СВ - северо-восточный, В - восточный, ЮВ - юго-восточный, Ю - южный, ЮЗ - юго-западный, З - западный, СЗ - северо-западный.
Видимость - горизонтальная дальность видимости в метрах или километрах. При видимости от 1 до 10 км при отсутствии осадков обычно наблюдается дымка, при ухудшении видимости до 1 км и менее - туман. В сухую погоду видимость может ухудшаться дымом, пылью или мглою.
Явления - указаны атмосферные явления, наблюдавшиеся в срок или в последний час перед сроком; фигурными скобками обозначены явления, наблюдавшиеся между сроками (за 1-3 часа до срока); квадратными скобками обозначены град или гололедные отложения с указанием их диаметра в мм.
Облачность - указаны через наклонную черту общая и нижняя облачность в баллах и высота нижней границы облаков в метрах; квадратными скобками обозначены формы облаков: Ci - перистые, Cs - перисто-слоистые, Cc - перисто-кучевые, Ac - высококучевые, As - высокослоистые, Sc - слоисто-кучевые, Ns - слоисто-дождевые, Cu - кучевые, Cb - кучево-дождевые. Подробнее классификацию облаков см. в Атласе облаков (PDF).
T - Температура воздуха - температура, измеренная на высоте 2 м над землей.
Td - Температура точки росы - температура, при понижении до которой содержащийся в воздухе водяной пар достигнет насыщения.
f - Относительная влажность воздуха - влажноcть воздуха, измеренная на высоте 2 м над землей.
Te - Эффективная температура - температура, которую ощущает одетый по сезону человек в тени. Характеристика душности погоды. При расчете учитывается влияние влажности воздуха и скорости ветра на теплоощущения человека.
Tes - Эффективная температура на солнце - температура, которую ощущает человек, с поправкой на солнечный нагрев. Характеристика знойности погоды. Зависит от высоты солнца над горизонтом, облачности и скорости ветра. Ночью, в пасмурную погоду, а также при ветре 12 м/с и более поправка равна нулю.
P - Атмосферное давление - приведенное к уровню моря атмосферное давление.
Po - Атмосферное давление - измеренное на уровне метеостанции атмосферное давление.
Tmin - Минимальная температура - минимум температуры воздуха на высоте 2 м над землей.
Tmax - Максимальная температура - максимум температуры воздуха на высоте 2 м над землей.
R - Количество осадков - Количество выпавших осадков за период времени, мм. При наведении курсора мыши на число - период времени, за который выпало указанное количество осадков.
R24 - Количество осадков - Количество выпавших осадков за 24 часа, мм.
S - Снежный покров - Высота снежного покрова, см. При наведении курсора мыши на число - состояние снежного покрова и степень покрытия местности в баллах.